Location: Czekanka
(50.4925°N, 19.2643°E)
Time: 07:20:43
(UTC+00:00)

Cosmos 2263 Rocket - Pass Details

Date: 27 September 2024
Orbit: 821 x 849 km, 71.0° (Epoch: 12 October)

Event Time Altitude Azimuth Distance (km) Brightness Sun altitude
Exits shadow 02:10:15 19° 173° (S) 1,877 3.8 -23.4°
Maximum altitude 02:13:55 45° 110° (ESE) 1,134 3.1 -22.9°
Drops below altitude 10° 02:19:18 10° 39° (NE) 2,477 5.5 -22.1°
Sets 02:21:50 0° 33° (NNE) 3,420 6.3 -21.7°
